Regional Weather Roundup
Issued by NWS Bismarck, ND

Home | Current Version | Previous Version | Text Only | Print | Product List | Glossary On
Versions: 1 2 3 4 5 6 7 8 9 10 11 12 13 14 15 16 17 18 19 20 21 22 23 24 25 26 27 28 29 30 31 32 33 34 35 36 37 38 39 40 41 42 43 44 45 46 47 48 49 50
000
ASUS43 KBIS 261959
RWRBIS

NWR BROADCAST TEXT
NATIONAL WEATHER SERVICE BISMARCK ND
300 PM CDT SAT JUL 26 2014

NOTE: "FAIR" INDICATES FEW OR NO CLOUDS BELOW 12,000 FEET WITH NO
SIGNIFICANT WEATHER AND/OR OBSTRUCTIONS TO VISIBILITY.


CITY           SKY/WX    TMP DP  RH WIND       PRES   REMARKS
WILLISTON      PTSUNNY   73  51  46 NW24      29.95R
MINOT          LGT RAIN  71  54  54 W24G38    29.81S
MINOT AFB      LGT RAIN  63  61  94 NW23G33   29.80S
BISMARCK       MOSUNNY   78  50  37 NW22G36   29.91S
DICKINSON      NOT AVBL
GARRISON         N/A     66  54  65 W20G26    29.89R
HETTINGER ARPT SUNNY     79  44  28 W29G44    30.00F
JAMESTOWN      MOSUNNY   76  51  41 W21G28    29.85R
CARRINGTON     MOCLDY    72  55  56 W23G33    29.84S
CROSBY         LGT RAIN  63  59  88 NW18G28   29.91R
HARVEY         MOCLDY    64  57  77 W16G33    29.83R
HAZEN          CLOUDY    72  50  46 W26G38    29.91S
LINTON         FAIR      77  54  44 W23G32    29.91S
MANDAN         FAIR      73  52  46 W22G35    29.92S
RUGBY          FAIR      68  57  68 W25G37    29.76F
TIOGA          CLOUDY    64  63  94 NW24G35   29.94R
WATFORD CITY   MOCLDY    68  50  52 W18G29    29.94S
$$

CITY           SKY/WX    TMP DP  RH WIND       PRES   REMARKS
GRAND FORKS    PTSUNNY   73  57  57 W10       29.76S
GRAND FORKS AF NOT AVBL
DEVILS LAKE    PTSUNNY   66  55  68 W23       29.77S
FARGO          SUNNY     81  53  37 W18G29    29.79S
CAVALIER       FAIR      72  57  60 W15G21    29.71F
GRAFTON        MOCLDY    73  55  53 W16G23    29.73F
GWINNER        CLEAR     79  57  47 W18G26    29.86S
LANGDON        RAIN      64  57  77 W18G36    29.73S
$$

CITY           SKY/WX    TMP DP  RH WIND       PRES   REMARKS
ABERDEEN       SUNNY     83  49  30 NW20      29.88S
MOBRIDGE       SUNNY     83  48  29 NW21G31   29.91R
BUFFALO          N/A     78  43  28 NW29G40   29.99F
RAPID CITY     SUNNY     81  45  28 N16G28    30.07S
GLASGOW        MOSUNNY   76  49  38 NW18G32   30.05R
SIDNEY         CLOUDY    73  48  40 NW18G26   30.01R
WOLF POINT     MOSUNNY   79  46  31 NW20G31   30.02R
GLENDIVE       SUNNY     73  46  38 W28G35    30.05S
MILES CITY     SUNNY     80  40  23 NW16G36   30.08S
BAKER          MOSUNNY   78  43  28 NW29G38   30.06S
$$

CITY           SKY/WX    TMP DP  RH WIND       PRES   REMARKS
BILLINGS       MOSUNNY   83  32  16 N12G18    30.13F
GREAT FALLS    SUNNY     76  37  24 VRB3      30.17F
$$



USA.gov is the U.S. government's official web portal to all federal, state and local government web resources and services.